Regional Weather Roundup
Issued by NWS Upton, NY

Home | Current Version | Previous Version | Text Only | Print | Product List | Glossary On
Versions: 1 2 3 4 5 6 7 8 9 10 11 12 13 14 15 16 17 18 19 20 21 22 23 24 25 26 27
000
ASUS41 KOKX 230908
RWROKX

REGIONAL WEATHER ROUNDUP
NATIONAL WEATHER SERVICE NEW YORK NY
400 AM EST MON JAN 23 2017

NOTE: "FAIR" INDICATES FEW OR NO CLOUDS BELOW 12,000 FEET WITH NO
SIGNIFICANT WEATHER AND/OR OBSTRUCTIONS TO VISIBILITY.

NYZ071-072-176-178-NJZ106-104-231000-
NEW YORK CITY METRO AREA

CITY           SKY/WX    TMP DP  RH WIND       PRES   REMARKS
Central Park   CLOUDY    42  38  85 E21G33    29.85R
Wall St Helipt CLOUDY    43  38  82 NE17G29   29.81S
LaGuardia APRT CLOUDY    43  38  82 E24G30    29.84R
Kennedy INTL   CLOUDY    45  41  86 NE22G28   29.83R
Breezy Point     N/A     43 N/A N/A NE21G29     N/A
Newark/Liberty CLOUDY    43  39  86 NE17G25   29.82R
Teterboro      CLOUDY    44  38  79 NE14G28   29.82S
$$

NYZ177-179-078>081-231000-
LONG ISLAND NEW YORK

CITY           SKY/WX    TMP DP  RH WIND       PRES   REMARKS
Jones Beach      N/A     41 N/A N/A E26G33      N/A
Matinecock PT    N/A     41 N/A N/A E28G35      N/A
Farmingdale    CLOUDY    43  37  79 E16G25    29.83R
MacArthur/ISP  CLOUDY    42  38  85 E16G26    29.84R
Shirley        CLOUDY    41  37  86 E9G23     29.86R
Westhampton    CLOUDY    41  36  82 E14G23    29.87R
Southampton    NOT AVBL
Bridgehampton  NOT AVBL
East Hampton   CLOUDY    40  35  83 E14G25    29.87R WCI  32
Montauk          N/A     41  36  82 NE15G31   29.88F
$$

NYZ052-065-067-231000-
HUDSON VALLEY

CITY           SKY/WX    TMP DP  RH WIND       PRES   REMARKS
White Plains   MOCLDY    42  36  79 E8G21     29.82R
Newburgh       NOT AVBL
Montgomery     CLOUDY    41  35  79 NE10      29.83S
Poughkeepsie   CLOUDY    40  34  79 NE14G21   29.85F WCI  32
Albany         CLOUDY    38  32  79 NE6       29.92S WCI  33
$$

NJZ001-105-106-008-010-013-015-019>022-104-231000-
NEW JERSEY

CITY           SKY/WX    TMP DP  RH WIND       PRES   REMARKS
Newark/Liberty CLOUDY    43  39  86 NE17G25   29.82R
Teterboro      CLOUDY    44  38  79 NE14G28   29.82S
Caldwell       CLOUDY    43  37  79 E16G30    29.83R
Somerville     CLOUDY    43  38  82 E9G17     29.78R
Linden         CLOUDY    43  39  85 E18       29.81F
Sussex         CLOUDY    40  39  97 NE7       29.83R FOG
Andover          N/A     40  38  93 NE6       29.81R
Trenton        CLOUDY    43  40  89 E22G36    29.75F
Millville      LGT RAIN  47  46  97 NE18G28   29.65S FOG
Atlantic City  LGT RAIN  47  44  90 NE26G40   29.66F FOG
Wrightstown    LGT RAIN  43  41  95 NE23G33   29.70F FOG
Toms River     LGT RAIN  44  43  96 E20G29    29.75F FOG
Belmar         LGT RAIN  42  41  96 NE20G37   29.77S FOG
$$

PAZ047>061-062-071-231000-
EASTERN PENNSYLVANIA

CITY           SKY/WX    TMP DP  RH WIND       PRES   REMARKS
Philadelphia   CLOUDY    44  41  89 NE20G30   29.71F
Allentown      CLOUDY    45  37  73 E20G30    29.76R
Scranton       CLOUDY    42  37  82 E8        29.78R
$$

CTZ002-004>006-009-010-012-RIZ004-006-007-MAZ004-011-015-231000-
SOUTHERN NEW ENGLAND
 IN CT

CITY           SKY/WX    TMP DP  RH WIND       PRES   REMARKS
Bradley INTL   CLOUDY    38  34  85 N14       29.92F WCI  30
Hartford       CLOUDY    40  34  79 NE14      29.90F WCI  32
Danbury        CLOUDY    40  35  83 E16G22    29.86S WCI  31
Wtrbury/Oxford CLOUDY    37  34  87 E13G24    29.84F WCI  29
Bridgeport     CLOUDY    44  36  73 NE16      29.87R
Meriden        CLOUDY    42  34  73 NE12G22   29.87F
New Haven      CLOUDY    42  35  76 E14G23    29.86F
Chester        CLOUDY    39  34  81 NE10G26   29.86S WCI  32
Groton         CLOUDY    41  34  76 NE21G30   29.87F
Wilimantic     LGT RAIN  40  36  86 NE13      29.90F WCI  32

 IN RI

CITY           SKY/WX    TMP DP  RH WIND       PRES   REMARKS
Providence     CLOUDY    39  32  76 NE17G26   29.93F WCI  30
Block Island   NOT AVBL
Westerly       CLOUDY    41  32  70 NE13G26   29.88F
 IN MA

CITY           SKY/WX    TMP DP  RH WIND       PRES   REMARKS
Boston         CLOUDY    38  31  76 NE23G31   30.00F WCI  27
Worcester      CLOUDY    32  30  92 NE16G25   29.92F WCI  21
Westfield      CLOUDY    36  33  89 N9        29.94F WCI  29
Provincetown   MOCLDY    38  32  79 E20G30    29.98S WCI  28
Nantucket      CLOUDY    40  32  73 NE22G31   29.89F WCI  30
$$

ANZ330-335-338-340-345-350-353-355-231000-
COASTAL MARINE OBSERVATIONS


STATION/POSITION TIME  SKY/WX   TEMP    WIND        PRES    VSBY  WAVE
                                AIR SEA DIR/SP/G                  HT/PER
                 (UTC)          (F)     (DEG/KT/KT) (MB)    (MI)  (FT/S)
NY HARB ENTRANCE 0750            43 43   60/ 29/ 35 1007.4         10/ 8
20 S FIRE ISLAND 0850            45 45   70/ 29/ 37 1007.2         12/ 8
GREAT SOUTH BAY  NOT AVBL
23 SSW MONTAUK P 0750            44 47   70/ 29/ 35 1009.7         10/ 8
15 E BARNEGAT LI 0830               47                N/A          13/ 8
HUDSON CANYON    0750            51 52              1005.0         11/ 8
KINGS POINT      0836            42 39              1010.3
EXECUTION ROCKS  0845            41      70/ 19/ 29   N/A
CENTRAL LI SOUND 0815            42      70/ 21/ 25   N/A           4/ 5
EASTERN LI SOUND NOT AVBL
ROBBINS REEF     0836            43      70/ 20/ 25 1009.7
$$


>>>>>>>>>>>>>>>>>>>>>>>>>>>> KEY <<<<<<<<<<<<<<<<<<<<<<<<<<<
>                                                          <
>     SKY/WX - Sky Condition/Present Weather               <
>     TMP    - Temperature in Fahrenheit                   <
>     DP     - Dew Point in Fahrenheit                     <
>     RH     - Relative Humidity in Percent                <
>     WIND   - Direction (from) and Speed in MPH           <
>     PRES   - Mean Sea Level Pressure (inches of Hg)      <
>     WCI    - Wind Chill Index                            <
>     VSB    - VISIBILITY IN MILES                         <
>     HX     - HEAT INDEX                                  <
>     TC     - TEMPERATURE IN CELSIUS                      <
>     VRB    - VARIABLE WIND DIRECTION                     <
>                                                          <
>>>>>>>>>>>>>>>>>>>>>>>>>>>> KEY <<<<<<<<<<<<<<<<<<<<<<<<<<<




USA.gov is the U.S. government's official web portal to all federal, state and local government web resources and services.